"SCET";"TARGET";"ELECTRON_DENSITY";"ERROR_FLAG";"ELECTRON_DENSITY_ERROR";"FREQ_FCE";"MEASURED_VALUE";"MEASURED_ITEM";"FREQ_PLASMA";"FREQ_UPPER_HYBRID";"FREQ_R_EQUALS_ZERO";"FREQ_L_EQUALS_ZERO";"ORBIT_NUMBER";"SATURN_RADIUS";"SATURN_IAU_LONGITUDE";"SATURN_SLS4_S_LONGITUDE";"SATURN_SLS4_N_LONGITUDE";"SATURN_SLS5_S_LONGITUDE";"SATURN_SLS5_N_LONGITUDE";"SATURN_LOCAL_TIME";"SATURN_KRONOGRAPHIC_LATITUDE";"SATURN_MAGNETIC_LATITUDE";"SATURN_L";"SATURN_L_OFFSET";"SATURN_SOLAR_EQUATORIAL_X";"SATURN_SOLAR_EQUATORIAL_Y";"SATURN_SOLAR_EQUATORIAL_Z";"SATURN_ALTITUDE";"ENCELADUS_ENCOUNTER_NUMBER";"ENCELADUS_RADIUS";"ENCELADUS_COROTATIONAL_X";"ENCELADUS_COROTATIONAL_Y";"ENCELADUS_COROTATIONAL_Z";"ENCELADUS_TRUE_ANOMALY";"ENCELADUS_PERIAPSIS_TIME";"JUPITER_RADIUS";"JUPITER_SYSTEMIII_LONGITUDE";"JUPITER_MAGNETIC_LATITUDE";"JUPITER_MAGNETIC_LOCAL_TIME";"JUPITER_L";"IO_PHASE";"EARTH_RADIUS";"EARTH_MAGNETIC_LATITUDE";"EARTH_LOCAL_TIME";"EARTH_L"
"[UTC]";"[0=Saturn, 1=Enceladus, 2=Jupiter, 3=Earth]";"[cm-3]";"[0=automated, 1=manual]";"[normalized density error]";"[Hz]";"[Hz]";"[0=upper hybrid frequency, 1=plasma frequency cutoff]";"[Hz]";"[Hz]";"[Hz]";"[Hz}";"[0, A, B, C, 3, 4, ... , 292, 293]";"[Rs where 1Rs=60268km]";"[degrees]";"[degrees]";"[degrees]";"[degrees]";"[degrees]";"[hours]";"[degrees]";"[degrees where offset=2293km north]";"[Rs where 1Rs=60268km]";"[Rs where 1Rs=60268km and offset=2293km north]";"[Rs where 1Rs=60268km]";"[Rs where 1Rs=60268km]";"[Rs where 1Rs=60268km]";"[km where ellipsoid a,b=60268km and c=54364km]";"[E0, E1, E2, ... , E21, E22]";"[Renc where 1Renc=252.1km]";"[Renc where 1Renc=252.1km]";"[Renc where 1Renc=252.1km]";"[Renc where 1Renc=252.1km]";"[degrees]";"[UTC]";"[Rj where 1Rj=71492km]";"[degrees]";"[degrees using JRM09 model]";"[hours using JRM09 model]";"[Rj where 1Rj=71492km]";"[degrees]";"[Re where 1Re=6378.1366km]";"[degrees]";"[hours]";"[Re where 1Re=6378.1366km]"
2012-05-19T17:33:59.323Z;0;3.4070e+00;0;     0.199;   572.432;  16585.967; 0;  16576.086;  16585.967;  16864.773;  16292.341;166;   8.880;  14.580;;; 321.053; 313.065;  20.525;   0.036;  -0.210;   8.880;   8.871;  -5.452;   7.010;   0.006;;;;;;;;;;;;;;;;;;
2012-05-19T17:35:03.322Z;0;4.4200e+00;0;     0.068;   580.944;  18888.355; 0;  18879.420;  18888.355;  19172.125;  18591.182;166;   8.872;  15.133;;; 321.603; 313.616;  20.528;   0.036;  -0.210;   8.872;   8.863;  -5.452;   6.999;   0.006;;;;;;;;;;;;;;;;;;
2012-05-19T17:35:11.322Z;0;3.4750e+00;0;     0.097;   580.944;  16749.402; 0;  16739.324;  16749.402;  17032.316;  16451.373;166;   8.871;  15.202;;; 321.672; 313.684;  20.528;   0.036;  -0.210;   8.871;   8.862;  -5.452;   6.998;   0.005;;;;;;;;;;;;;;;;;;
2012-05-19T17:35:43.322Z;0;4.1160e+00;0;     0.068;   580.944;  18228.902; 0;  18219.643;  18228.902;  18512.430;  17931.486;166;   8.866;  15.479;;; 321.947; 313.959;  20.530;   0.035;  -0.210;   8.866;   8.857;  -5.452;   6.992;   0.005;;;;;;;;;;;;;;;;;;
2012-05-19T17:35:59.322Z;0;4.2780e+00;0;     0.064;   580.944;  18582.121; 0;  18573.037;  18582.121;  18865.781;  18284.838;166;   8.864;  15.617;;; 322.084; 314.096;  20.531;   0.035;  -0.211;   8.864;   8.855;  -5.453;   6.989;   0.005;;;;;;;;;;;;;;;;;;
2012-05-19T17:36:15.322Z;0;3.0500e+00;0;     0.122;   580.944;  15692.571; 0;  15681.814;  15692.571;  15974.977;  15394.032;166;   8.862;  15.755;;; 322.222; 314.233;  20.531;   0.035;  -0.211;   8.862;   8.853;  -5.453;   6.986;   0.005;;;;;;;;;;;;;;;;;;
2012-05-19T17:36:31.322Z;0;4.1890e+00;0;     0.067;   587.020;  18389.053; 0;  18379.682;  18389.053;  18675.535;  18088.514;166;   8.860;  15.893;;; 322.359; 314.371;  20.532;   0.035;  -0.211;   8.860;   8.851;  -5.453;   6.983;   0.005;;;;;;;;;;;;;;;;;;
2012-05-19T17:36:39.322Z;0;3.9820e+00;0;     0.183;   587.020;  17929.922; 0;  17920.311;  17929.922;  18216.223;  17629.203;166;   8.859;  15.963;;; 322.428; 314.439;  20.533;   0.035;  -0.211;   8.859;   8.850;  -5.453;   6.982;   0.005;;;;;;;;;;;;;;;;;;
2012-05-19T17:36:47.322Z;0;4.1160e+00;0;     0.182;   587.020;  18227.355; 0;  18217.900;  18227.355;  18513.775;  17926.754;166;   8.858;  16.032;;; 322.497; 314.508;  20.533;   0.035;  -0.211;   8.858;   8.849;  -5.453;   6.981;   0.005;;;;;;;;;;;;;;;;;;
2012-05-19T17:37:27.321Z;0;3.4290e+00;0;     0.198;   587.020;  16638.889; 0;  16628.531;  16638.889;  16924.631;  16337.610;166;   8.852;  16.377;;; 322.840; 314.850;  20.535;   0.035;  -0.211;   8.852;   8.843;  -5.453;   6.974;   0.005;;;;;;;;;;;;;;;;;;
2012-05-19T17:38:15.321Z;0;4.1650e+00;0;     0.071;   587.020;  18336.766; 0;  18327.367;  18336.766;  18623.227;  18036.207;166;   8.846;  16.792;;; 323.253; 315.260;  20.537;   0.035;  -0.212;   8.846;   8.837;  -5.454;   6.965;   0.005;;;;;;;;;;;;;;;;;;
2012-05-19T17:38:23.321Z;0;3.7530e+00;0;     0.082;   587.020;  17406.289; 0;  17396.389;  17406.289;  17692.373;  17105.354;166;   8.845;  16.861;;; 323.321; 315.328;  20.538;   0.035;  -0.212;   8.845;   8.836;  -5.454;   6.964;   0.005;;;;;;;;;;;;;;;;;;
2012-05-19T17:38:39.321Z;0;3.7260e+00;0;     0.165;   585.564;  17344.373; 0;  17334.486;  17344.373;  17629.740;  17044.176;166;   8.843;  16.999;;; 323.459; 315.464;  20.538;   0.034;  -0.212;   8.843;   8.834;  -5.454;   6.961;   0.005;;;;;;;;;;;;;;;;;;
2012-05-19T17:38:47.321Z;0;3.7400e+00;0;     0.132;   585.564;  17377.123; 0;  17367.254;  17377.123;  17662.504;  17076.939;166;   8.842;  17.068;;; 323.527; 315.533;  20.539;   0.034;  -0.212;   8.842;   8.833;  -5.454;   6.959;   0.005;;;;;;;;;;;;;;;;;;
2012-05-19T17:38:55.321Z;0;3.6220e+00;0;     0.204;   585.564;  17099.799; 0;  17089.770;  17099.799;  17385.061;  16799.496;166;   8.841;  17.138;;; 323.596; 315.601;  20.539;   0.034;  -0.212;   8.841;   8.832;  -5.454;   6.958;   0.005;;;;;;;;;;;;;;;;;;
2012-05-19T17:39:03.321Z;0;3.7580e+00;0;     0.085;   585.564;  17418.115; 0;  17408.270;  17418.115;  17703.514;  17117.949;166;   8.840;  17.207;;; 323.665; 315.669;  20.540;   0.034;  -0.212;   8.840;   8.831;  -5.454;   6.957;   0.005;;;;;;;;;;;;;;;;;;
2012-05-19T17:39:11.321Z;0;4.1000e+00;0;     0.101;   585.564;  18193.268; 0;  18183.842;  18193.268;  18478.980;  17893.416;166;   8.839;  17.276;;; 323.733; 315.737;  20.540;   0.034;  -0.212;   8.839;   8.829;  -5.454;   6.955;   0.005;;;;;;;;;;;;;;;;;;
2012-05-19T17:39:35.321Z;0;4.0980e+00;0;     0.157;   585.564;  18187.066; 0;  18177.637;  18187.066;  18472.777;  17887.213;166;   8.835;  17.483;;; 323.940; 315.942;  20.541;   0.034;  -0.213;   8.835;   8.826;  -5.454;   6.951;   0.005;;;;;;;;;;;;;;;;;;
2012-05-19T17:39:51.320Z;0;3.6290e+00;0;     0.141;   585.564;  17117.119; 0;  17107.100;  17117.119;  17402.387;  16816.824;166;   8.833;  17.621;;; 324.077; 316.078;  20.542;   0.034;  -0.213;   8.833;   8.824;  -5.454;   6.948;   0.005;;;;;;;;;;;;;;;;;;
2012-05-19T17:39:59.320Z;0;3.3490e+00;0;     0.213;   585.564;  16445.217; 0;  16434.789;  16445.217;  16730.178;  16144.614;166;   8.832;  17.690;;; 324.146; 316.146;  20.542;   0.034;  -0.213;   8.832;   8.823;  -5.455;   6.947;   0.005;;;;;;;;;;;;;;;;;;
2012-05-19T17:40:39.320Z;0;4.4940e+00;0;     0.091;   593.068;  19046.912; 0;  19037.676;  19046.912;  19336.520;  18743.451;166;   8.827;  18.036;;; 324.489; 316.489;  20.544;   0.034;  -0.213;   8.827;   8.818;  -5.455;   6.940;   0.005;;;;;;;;;;;;;;;;;;
2012-05-19T17:40:47.320Z;0;4.4950e+00;0;     0.072;   593.068;  19048.506; 0;  19039.271;  19048.506;  19338.113;  18745.047;166;   8.826;  18.105;;; 324.558; 316.558;  20.545;   0.034;  -0.213;   8.826;   8.817;  -5.455;   6.938;   0.005;;;;;;;;;;;;;;;;;;
2012-05-19T17:41:03.320Z;0;4.4360e+00;0;     0.061;   593.068;  18923.443; 0;  18914.148;  18923.443;  19213.006;  18619.938;166;   8.823;  18.243;;; 324.695; 316.695;  20.546;   0.034;  -0.213;   8.823;   8.814;  -5.455;   6.935;   0.005;;;;;;;;;;;;;;;;;;
2012-05-19T17:41:11.320Z;0;4.5370e+00;0;     0.068;   593.068;  19137.188; 0;  19127.996;  19137.188;  19426.828;  18833.760;166;   8.822;  18.312;;; 324.764; 316.764;  20.546;   0.034;  -0.213;   8.822;   8.813;  -5.455;   6.934;   0.005;;;;;;;;;;;;;;;;;;
2012-05-19T17:41:19.320Z;0;4.2290e+00;0;     0.077;   593.068;  18475.439; 0;  18465.918;  18475.439;  18764.832;  18171.766;166;   8.821;  18.381;;; 324.832; 316.832;  20.546;   0.034;  -0.213;   8.821;   8.812;  -5.455;   6.933;   0.005;;;;;;;;;;;;;;;;;;
2012-05-19T17:41:27.320Z;0;4.5150e+00;0;     0.077;   593.068;  19091.180; 0;  19081.965;  19091.180;  19380.803;  18787.736;166;   8.820;  18.450;;; 324.901; 316.901;  20.547;   0.034;  -0.214;   8.820;   8.811;  -5.455;   6.931;   0.005;;;;;;;;;;;;;;;;;;
2012-05-19T17:41:35.320Z;0;4.5270e+00;0;     0.091;   593.068;  19116.020; 0;  19106.818;  19116.020;  19405.652;  18812.584;166;   8.819;  18.519;;; 324.970; 316.970;  20.547;   0.034;  -0.214;   8.819;   8.810;  -5.455;   6.930;   0.005;;;;;;;;;;;;;;;;;;
2012-05-19T17:41:51.320Z;0;4.4700e+00;0;     0.057;   593.068;  18994.553; 0;  18985.291;  18994.553;  19284.141;  18691.074;166;   8.817;  18.658;;; 325.107; 317.107;  20.548;   0.033;  -0.214;   8.817;   8.808;  -5.455;   6.927;   0.005;;;;;;;;;;;;;;;;;;
2012-05-19T17:42:55.319Z;0;4.1130e+00;0;     0.059;   599.284;  18222.266; 0;  18212.408;  18222.266;  18514.516;  17915.230;166;   8.808;  19.210;;; 325.656; 317.656;  20.551;   0.033;  -0.214;   8.808;   8.799;  -5.456;   6.916;   0.005;;;;;;;;;;;;;;;;;;
2012-05-19T17:43:03.319Z;0;3.4130e+00;0;     0.175;   599.284;  16601.113; 0;  16590.293;  16601.113;  16892.641;  16293.356;166;   8.807;  19.279;;; 325.725; 317.725;  20.552;   0.033;  -0.214;   8.807;   8.798;  -5.456;   6.914;   0.005;;;;;;;;;;;;;;;;;;
2012-05-19T17:43:11.319Z;0;2.9060e+00;0;     0.151;   599.284;  15319.460; 0;  15307.733;  15319.460;  15610.309;  15011.024;166;   8.806;  19.348;;; 325.794; 317.794;  20.552;   0.033;  -0.214;   8.806;   8.797;  -5.456;   6.913;   0.005;;;;;;;;;;;;;;;;;;
2012-05-19T17:43:59.319Z;0;3.5560e+00;0;     0.220;   599.284;  16943.480; 0;  16932.879;  16943.480;  17235.172;  16635.889;166;   8.800;  19.763;;; 326.206; 318.206;  20.554;   0.033;  -0.215;   8.800;   8.791;  -5.456;   6.904;   0.005;;;;;;;;;;;;;;;;;;
2012-05-19T17:46:15.318Z;0;3.6320e+00;0;     0.227;   608.412;  17123.545; 0;  17112.732;  17123.545;  17419.643;  16811.230;166;   8.782;  20.936;;; 327.372; 319.372;  20.561;   0.032;  -0.216;   8.782;   8.773;  -5.457;   6.880;   0.005;;;;;;;;;;;;;;;;;;
2012-05-19T17:46:39.318Z;0;3.9990e+00;0;     0.111;   620.452;  17969.336; 0;  17958.621;  17969.336;  18271.527;  17651.074;166;   8.778;  21.143;;; 327.578; 319.578;  20.563;   0.032;  -0.216;   8.778;   8.769;  -5.457;   6.876;   0.005;;;;;;;;;;;;;;;;;;
2012-05-19T17:46:47.318Z;0;3.7170e+00;0;     0.085;   620.452;  17323.801; 0;  17312.686;  17323.801;  17625.691;  17005.240;166;   8.777;  21.212;;; 327.647; 319.647;  20.563;   0.032;  -0.216;   8.777;   8.768;  -5.458;   6.875;   0.005;;;;;;;;;;;;;;;;;;
2012-05-19T17:46:55.318Z;0;3.2580e+00;0;     0.222;   620.452;  16220.417; 0;  16208.546;  16220.417;  16521.740;  15901.289;166;   8.776;  21.281;;; 327.716; 319.716;  20.563;   0.032;  -0.216;   8.776;   8.767;  -5.458;   6.873;   0.005;;;;;;;;;;;;;;;;;;
2012-05-19T17:47:27.318Z;0;4.4550e+00;0;     0.124;   620.452;  18963.396; 0;  18953.244;  18963.396;  19266.008;  18645.557;166;   8.772;  21.557;;; 327.990; 319.990;  20.565;   0.032;  -0.217;   8.772;   8.763;  -5.458;   6.867;   0.005;;;;;;;;;;;;;;;;;;
2012-05-19T17:51:59.316Z;0;4.6470e+00;0;     0.071;   637.756;  19368.953; 0;  19358.451;  19368.953;  19679.955;  19042.199;166;   8.735;  23.903;;; 330.334; 322.334;  20.579;   0.030;  -0.219;   8.735;   8.726;  -5.460;   6.819;   0.005;;;;;;;;;;;;;;;;;;
2012-05-19T17:52:15.316Z;0;4.6740e+00;0;     0.099;   637.756;  19425.404; 0;  19414.932;  19425.404;  19736.430;  19098.674;166;   8.733;  24.041;;; 330.473; 322.473;  20.580;   0.030;  -0.219;   8.733;   8.724;  -5.460;   6.816;   0.005;;;;;;;;;;;;;;;;;;
2012-05-19T17:52:23.316Z;0;4.6180e+00;0;     0.199;   637.756;  19308.152; 0;  19297.617;  19308.152;  19619.129;  18981.373;166;   8.732;  24.110;;; 330.542; 322.542;  20.580;   0.030;  -0.219;   8.732;   8.723;  -5.460;   6.815;   0.005;;;;;;;;;;;;;;;;;;
2012-05-19T17:52:31.316Z;0;4.5340e+00;0;     0.120;   642.404;  19132.383; 0;  19121.596;  19132.383;  19445.494;  18803.090;166;   8.731;  24.179;;; 330.612; 322.612;  20.580;   0.030;  -0.220;   8.731;   8.722;  -5.460;   6.813;   0.005;;;;;;;;;;;;;;;;;;
2012-05-19T17:52:39.316Z;0;4.4410e+00;0;     0.082;   642.404;  18934.242; 0;  18923.342;  18934.242;  19247.270;  18604.865;166;   8.730;  24.248;;; 330.681; 322.681;  20.581;   0.030;  -0.220;   8.730;   8.721;  -5.460;   6.812;   0.005;;;;;;;;;;;;;;;;;;
2012-05-19T17:53:03.315Z;0;4.7000e+00;0;     0.237;   642.404;  19478.213; 0;  19467.617;  19478.213;  19791.469;  19149.064;166;   8.727;  24.455;;; 330.890; 322.890;  20.582;   0.030;  -0.220;   8.727;   8.718;  -5.460;   6.808;   0.005;;;;;;;;;;;;;;;;;;
2012-05-19T17:53:19.315Z;0;5.5320e+00;0;     0.078;   642.404;  21130.008; 0;  21120.240;  21130.008;  21443.885;  20801.480;166;   8.725;  24.593;;; 331.029; 323.029;  20.583;   0.030;  -0.220;   8.725;   8.716;  -5.460;   6.805;   0.005;;;;;;;;;;;;;;;;;;
2012-05-19T17:53:27.315Z;0;5.0260e+00;0;     0.057;   642.404;  20141.322; 0;  20131.074;  20141.322;  20454.840;  19812.436;166;   8.723;  24.662;;; 331.099; 323.099;  20.583;   0.030;  -0.220;   8.723;   8.715;  -5.460;   6.803;   0.005;;;;;;;;;;;;;;;;;;
2012-05-19T17:53:59.315Z;0;4.6750e+00;0;     0.066;   642.404;  19427.643; 0;  19417.020;  19427.643;  19740.877;  19098.473;166;   8.719;  24.937;;; 331.378; 323.378;  20.585;   0.030;  -0.220;   8.719;   8.710;  -5.461;   6.798;   0.005;;;;;;;;;;;;;;;;;;
2012-05-19T17:54:07.315Z;0;4.7010e+00;0;     0.060;   642.404;  19481.703; 0;  19471.109;  19481.703;  19794.959;  19152.557;166;   8.718;  25.006;;; 331.448; 323.448;  20.585;   0.030;  -0.220;   8.718;   8.709;  -5.461;   6.796;   0.004;;;;;;;;;;;;;;;;;;
2012-05-19T17:54:15.315Z;0;4.1140e+00;0;     0.100;   642.404;  18224.707; 0;  18213.381;  18224.707;  18537.416;  17895.012;166;   8.717;  25.075;;; 331.517; 323.517;  20.586;   0.030;  -0.221;   8.717;   8.708;  -5.461;   6.795;   0.004;;;;;;;;;;;;;;;;;;
2012-05-19T17:55:35.315Z;0;5.0040e+00;0;     0.160;   650.804;  20097.525; 0;  20086.986;  20097.525;  20415.023;  19764.219;166;   8.706;  25.764;;; 332.216; 324.216;  20.590;   0.029;  -0.221;   8.706;   8.697;  -5.461;   6.781;   0.004;;;;;;;;;;;;;;;;;;
2012-05-19T17:55:51.314Z;0;4.3900e+00;0;     0.112;   650.804;  18825.930; 0;  18814.678;  18825.930;  19142.893;  18492.090;166;   8.704;  25.902;;; 332.356; 324.356;  20.591;   0.029;  -0.221;   8.704;   8.695;  -5.461;   6.778;   0.004;;;;;;;;;;;;;;;;;;
2012-05-19T17:56:47.314Z;0;4.9190e+00;0;     0.203;   639.240;  19926.320; 0;  19916.064;  19926.320;  20238.248;  19599.008;166;   8.696;  26.385;;; 332.846; 324.846;  20.593;   0.029;  -0.222;   8.696;   8.688;  -5.462;   6.768;   0.004;;;;;;;;;;;;;;;;;;
2012-05-19T17:57:03.314Z;0;5.6840e+00;0;     0.207;   639.240;  21419.695; 0;  21410.154;  21419.695;  21732.160;  21092.920;166;   8.694;  26.522;;; 332.986; 324.986;  20.594;   0.029;  -0.222;   8.694;   8.685;  -5.462;   6.765;   0.004;;;;;;;;;;;;;;;;;;
2012-05-19T17:57:19.314Z;0;5.1950e+00;0;     0.213;   639.240;  20477.598; 0;  20467.617;  20477.598;  20789.732;  20150.494;166;   8.692;  26.660;;; 333.126; 325.126;  20.595;   0.029;  -0.222;   8.692;   8.683;  -5.462;   6.762;   0.004;;;;;;;;;;;;;;;;;;
2012-05-19T17:57:27.314Z;0;4.9380e+00;0;     0.181;   639.240;  19964.506; 0;  19954.270;  19964.506;  20276.449;  19637.209;166;   8.691;  26.729;;; 333.196; 325.196;  20.596;   0.028;  -0.222;   8.691;   8.682;  -5.462;   6.761;   0.004;;;;;;;;;;;;;;;;;;
2012-05-19T17:57:35.314Z;0;4.9100e+00;0;     0.081;   639.240;  19908.092; 0;  19897.826;  19908.092;  20220.014;  19580.773;166;   8.690;  26.798;;; 333.267; 325.267;  20.596;   0.028;  -0.222;   8.690;   8.681;  -5.462;   6.759;   0.004;;;;;;;;;;;;;;;;;;
2012-05-19T17:57:51.314Z;0;4.8540e+00;0;     0.067;   639.240;  19795.686; 0;  19785.361;  19795.686;  20107.562;  19468.322;166;   8.688;  26.936;;; 333.407; 325.407;  20.597;   0.028;  -0.223;   8.688;   8.679;  -5.462;   6.756;   0.004;;;;;;;;;;;;;;;;;;
2012-05-19T17:57:59.314Z;0;5.1240e+00;0;     0.137;   639.240;  20337.514; 0;  20327.465;  20337.514;  20649.598;  20010.357;166;   8.687;  27.005;;; 333.477; 325.477;  20.597;   0.028;  -0.223;   8.687;   8.678;  -5.462;   6.755;   0.004;;;;;;;;;;;;;;;;;;
2012-05-19T17:58:07.314Z;0;4.7710e+00;0;     0.058;   639.240;  19625.133; 0;  19614.719;  19625.133;  19936.943;  19297.703;166;   8.686;  27.074;;; 333.547; 325.547;  20.598;   0.028;  -0.223;   8.686;   8.677;  -5.462;   6.754;   0.004;;;;;;;;;;;;;;;;;;
2012-05-19T17:58:15.314Z;0;4.6980e+00;0;     0.055;   639.240;  19475.348; 0;  19464.854;  19475.348;  19787.098;  19147.857;166;   8.685;  27.143;;; 333.618; 325.618;  20.598;   0.028;  -0.223;   8.685;   8.676;  -5.462;   6.752;   0.004;;;;;;;;;;;;;;;;;;
2012-05-19T17:59:03.313Z;0;3.6990e+00;0;     0.068;   654.024;  17282.547; 0;  17270.168;  17282.547;  17600.275;  16946.252;166;   8.678;  27.556;;; 334.039; 326.039;  20.600;   0.028;  -0.223;   8.678;   8.669;  -5.462;   6.744;   0.004;;;;;;;;;;;;;;;;;;
2012-05-19T17:59:11.313Z;0;2.7520e+00;0;     0.056;   654.024;  14912.015; 0;  14897.665;  14912.015;  15228.266;  14574.242;166;   8.677;  27.625;;; 334.110; 326.110;  20.601;   0.028;  -0.223;   8.677;   8.668;  -5.462;   6.742;   0.004;;;;;;;;;;;;;;;;;;
2012-05-19T18:01:11.312Z;0;4.8880e+00;0;     0.188;   654.332;  19863.893; 0;  19853.113;  19863.893;  20182.975;  19528.643;166;   8.661;  28.658;;; 335.154; 327.154;  20.607;   0.027;  -0.224;   8.661;   8.652;  -5.463;   6.721;   0.004;;;;;;;;;;;;;;;;;;
2012-05-19T18:01:27.312Z;0;5.1270e+00;0;     0.068;   654.332;  20343.193; 0;  20332.668;  20343.193;  20662.465;  20008.133;166;   8.659;  28.796;;; 335.292; 327.292;  20.608;   0.027;  -0.225;   8.659;   8.650;  -5.463;   6.718;   0.004;;;;;;;;;;;;;;;;;;
2012-05-19T18:01:35.312Z;0;5.4320e+00;0;     0.100;   654.332;  20939.570; 0;  20929.344;  20939.570;  21259.066;  20604.734;166;   8.658;  28.864;;; 335.361; 327.361;  20.608;   0.027;  -0.225;   8.658;   8.649;  -5.463;   6.716;   0.004;;;;;;;;;;;;;;;;;;
2012-05-19T18:01:51.312Z;0;4.5090e+00;0;     0.082;   654.332;  19079.588; 0;  19068.365;  19079.588;  19398.338;  18744.006;166;   8.655;  29.002;;; 335.498; 327.498;  20.609;   0.027;  -0.225;   8.655;   8.647;  -5.463;   6.714;   0.004;;;;;;;;;;;;;;;;;;
2012-05-19T18:02:07.312Z;0;4.5920e+00;0;     0.105;   654.332;  19254.859; 0;  19243.738;  19254.859;  19573.686;  18919.354;166;   8.653;  29.140;;; 335.636; 327.636;  20.610;   0.027;  -0.225;   8.653;   8.644;  -5.464;   6.711;   0.004;;;;;;;;;;;;;;;;;;
2012-05-19T18:02:15.312Z;0;4.5050e+00;0;     0.172;   654.332;  19071.697; 0;  19060.469;  19071.697;  19390.443;  18736.111;166;   8.652;  29.209;;; 335.705; 327.705;  20.610;   0.027;  -0.225;   8.652;   8.643;  -5.464;   6.709;   0.004;;;;;;;;;;;;;;;;;;
2012-05-19T18:02:39.312Z;0;4.4620e+00;0;     0.193;   669.116;  18980.982; 0;  18969.186;  18980.982;  19306.693;  18637.576;166;   8.649;  29.415;;; 335.911; 327.911;  20.612;   0.027;  -0.225;   8.649;   8.640;  -5.464;   6.705;   0.004;;;;;;;;;;;;;;;;;;
2012-05-19T18:02:47.312Z;0;4.8980e+00;0;     0.114;   669.116;  19885.191; 0;  19873.932;  19885.191;  20211.305;  19542.188;166;   8.648;  29.484;;; 335.980; 327.980;  20.612;   0.027;  -0.225;   8.648;   8.639;  -5.464;   6.703;   0.004;;;;;;;;;;;;;;;;;;
2012-05-19T18:03:27.312Z;0;4.4890e+00;0;     0.082;   669.116;  19038.562; 0;  19026.801;  19038.562;  19364.301;  18695.184;166;   8.642;  29.828;;; 336.323; 328.323;  20.614;   0.027;  -0.226;   8.642;   8.634;  -5.464;   6.696;   0.004;;;;;;;;;;;;;;;;;;
2012-05-19T18:04:31.311Z;0;4.7350e+00;0;     0.225;   674.044;  19551.781; 0;  19540.158;  19551.781;  19880.088;  19206.043;166;   8.634;  30.379;;; 336.872; 328.872;  20.617;   0.026;  -0.226;   8.634;   8.625;  -5.464;   6.685;   0.004;;;;;;;;;;;;;;;;;;
2012-05-19T18:05:03.311Z;0;4.1470e+00;0;     0.088;   674.044;  18298.871; 0;  18286.453;  18298.871;  18626.580;  17952.535;166;   8.629;  30.654;;; 337.145; 329.145;  20.619;   0.026;  -0.227;   8.629;   8.621;  -5.465;   6.679;   0.004;;;;;;;;;;;;;;;;;;
2012-05-19T18:05:11.311Z;0;3.8710e+00;0;     0.050;   674.044;  17681.828; 0;  17668.977;  17681.828;  18009.211;  17335.168;166;   8.628;  30.723;;; 337.214; 329.214;  20.620;   0.026;  -0.227;   8.628;   8.620;  -5.465;   6.678;   0.004;;;;;;;;;;;;;;;;;;
2012-05-19T18:05:35.311Z;0;4.2070e+00;0;     0.147;   674.044;  18431.773; 0;  18419.445;  18431.773;  18759.549;  18085.506;166;   8.625;  30.929;;; 337.419; 329.419;  20.621;   0.026;  -0.227;   8.625;   8.616;  -5.465;   6.673;   0.004;;;;;;;;;;;;;;;;;;
2012-05-19T18:05:51.311Z;0;3.7180e+00;0;     0.093;   674.044;  17329.232; 0;  17316.119;  17329.232;  17656.420;  16982.375;166;   8.623;  31.067;;; 337.556; 329.556;  20.622;   0.026;  -0.227;   8.623;   8.614;  -5.465;   6.670;   0.004;;;;;;;;;;;;;;;;;;
2012-05-19T18:05:59.311Z;0;3.7380e+00;0;     0.133;   674.044;  17373.992; 0;  17360.912;  17373.992;  17701.205;  17027.160;166;   8.622;  31.136;;; 337.624; 329.624;  20.622;   0.026;  -0.227;   8.622;   8.613;  -5.465;   6.669;   0.004;;;;;;;;;;;;;;;;;;
2012-05-19T18:06:23.310Z;0;3.5880e+00;0;     0.203;   674.044;  17022.707; 0;  17009.357;  17022.707;  17349.717;  16675.674;166;   8.619;  31.342;;; 337.828; 329.828;  20.623;   0.026;  -0.227;   8.619;   8.610;  -5.465;   6.665;   0.004;;;;;;;;;;;;;;;;;;
2012-05-19T18:06:39.310Z;0;4.4170e+00;0;     0.102;   676.116;  18885.660; 0;  18873.553;  18885.660;  19214.639;  18538.523;166;   8.617;  31.480;;; 337.965; 329.965;  20.624;   0.025;  -0.227;   8.617;   8.608;  -5.465;   6.662;   0.004;;;;;;;;;;;;;;;;;;
2012-05-19T18:06:47.310Z;0;4.1230e+00;0;     0.130;   676.116;  18247.516; 0;  18234.986;  18247.516;  18576.178;  17900.061;166;   8.615;  31.548;;; 338.033; 330.033;  20.625;   0.025;  -0.228;   8.615;   8.607;  -5.465;   6.660;   0.004;;;;;;;;;;;;;;;;;;
2012-05-19T18:06:55.310Z;0;4.0730e+00;0;     0.090;   676.116;  18134.652; 0;  18122.045;  18134.652;  18463.256;  17787.139;166;   8.614;  31.617;;; 338.101; 330.101;  20.625;   0.025;  -0.228;   8.614;   8.606;  -5.465;   6.659;   0.004;;;;;;;;;;;;;;;;;;
2012-05-19T18:07:03.310Z;0;4.0910e+00;0;     0.088;   676.116;  18176.412; 0;  18163.832;  18176.412;  18505.037;  17828.920;166;   8.613;  31.686;;; 338.169; 330.169;  20.625;   0.025;  -0.228;   8.613;   8.604;  -5.465;   6.658;   0.004;;;;;;;;;;;;;;;;;;
2012-05-19T18:07:11.310Z;0;4.0350e+00;0;     0.090;   676.116;  18051.789; 0;  18039.123;  18051.789;  18380.348;  17704.232;166;   8.612;  31.755;;; 338.237; 330.237;  20.626;   0.025;  -0.228;   8.612;   8.603;  -5.465;   6.656;   0.004;;;;;;;;;;;;;;;;;;
2012-05-19T18:07:27.310Z;0;3.9820e+00;0;     0.084;   676.116;  17932.748; 0;  17919.998;  17932.748;  18261.244;  17585.129;166;   8.610;  31.892;;; 338.374; 330.374;  20.627;   0.025;  -0.228;   8.610;   8.601;  -5.465;   6.653;   0.004;;;;;;;;;;;;;;;;;;
2012-05-19T18:08:39.310Z;0;3.8650e+00;0;     0.182;   682.976;  17667.648; 0;  17654.443;  17667.648;  17999.232;  17316.258;166;   8.600;  32.511;;; 338.985; 330.985;  20.630;   0.025;  -0.229;   8.600;   8.591;  -5.466;   6.640;   0.004;;;;;;;;;;;;;;;;;;
2012-05-19T18:08:47.309Z;0;4.7950e+00;0;     0.116;   682.976;  19676.303; 0;  19664.445;  19676.303;  20008.898;  19325.922;166;   8.599;  32.580;;; 339.053; 331.053;  20.631;   0.025;  -0.229;   8.599;   8.590;  -5.466;   6.639;   0.004;;;;;;;;;;;;;;;;;;